Wind_Speed
4 9 10 6 4 2 3 1 2 5 4 6 2 3 2 2 1 3 2 2 5 4 7 8 7 9 11 14 16 17 18 16 15 14 14 15 15 15 16 15 16 17 19 23 26 29 31 33 36 39 40 41 42 41 41 42 42 42 42 42 42 43 42
6 11 9 5 7 5 2 2 5 4 1 3 3 1 2 1 2 3 2 3 4 3 4 8 7 9 10 14 18 17 17 16 17 16 16 17 17 17 17 16 16 16 17 22 27 29 32 35 37 40 41 42 43 43 43 42 42 42 43 42 41 41 41
8 11 7 6 11 10 6 4 5 2 1 1 1 1 2 0 1 3 4 3 3 3 5 6 6 10 10 10 16 16 15 15 17 17 17 19 18 16 15 15 14 15 16 22 28 30 32 36 37 39 41 41 41 42 43 43 44 44 43 42 40 40 41
7 7 5 5 9 11 10 9 7 3 1 3 1 2 4 2 2 3 3 4 3 4 5 6 7 8 10 6 12 15 16 17 17 16 16 16 16 15 15 16 16 16 18 24 30 31 32 35 36 38 39 39 40 41 41 43 43 43 42 42 41 41 42
5 2 4 4 5 8 9 8 7 7 5 1 1 2 2 3 3 2 0 2 4 4 4 8 10 10 11 7 14 15 15 18 18 17 17 16 16 16 16 16 16 17 18 25 31 33 33 34 35 36 38 38 39 39 40 42 42 41 42 43 42 41 41
3 2 4 6 5 4 1 2 6 7 7 4 2 3 3 2 3 4 3 2 4 5 5 8 9 11 13 6 13 16 16 19 18 16 17 18 17 17 16 16 17 17 17 22 28 31 31 32 32 34 36 37 38 38 39 41 41 41 42 43 42 41 40
4 3 4 4 5 2 4 5 7 6 6 6 3 3 4 2 1 1 3 3 4 5 7 9 10 12 16 12 2 5 10 14 16 17 19 19 18 19 18 17 17 16 17 22 27 28 29 31 32 34 35 36 37 38 39 39 40 41 42 42 42 41 40
5 2 3 1 7 7 5 5 8 7 6 7 5 5 3 2 3 3 1 3 3 6 9 10 10 14 16 16 14 10 6 3 3 10 15 17 17 17 16 16 15 14 16 20 22 24 27 29 31 33 34 34 36 37 38 38 40 41 41 41 40 40 41
6 4 3 4 8 8 4 4 8 8 9 12 9 4 1 2 2 2 1 2 3 6 10 10 10 15 17 17 18 15 11 9 6 2 8 11 12 13 14 14 13 13 14 16 17 21 25 27 29 32 33 33 34 36 37 38 39 40 40 39 39 39 40
5 2 3 4 6 7 5 5 9 10 11 13 9 4 3 2 3 3 1 1 6 8 11 13 11 14 16 18 20 18 15 13 10 2 5 8 7 9 13 14 14 15 15 15 16 20 25 26 28 30 32 33 34 35 37 38 38 39 39 39 39 38 39
5 4 1 3 7 8 8 9 10 9 9 11 8 3 2 2 5 5 2 1 7 11 13 13 11 12 13 16 18 18 17 18 16 9 4 4 3 1 2 4 5 6 9 12 15 19 25 28 29 30 32 33 34 34 36 37 37 38 38 38 38 38 38
6 6 5 6 7 9 10 11 10 9 9 10 7 5 4 3 4 5 3 3 7 10 11 11 10 10 10 13 16 16 17 17 16 16 15 14 14 13 13 12 10 8 5 1 4 10 19 25 28 29 31 34 34 34 35 36 36 37 37 37 37 37 37
6 6 6 6 7 10 10 9 9 9 9 8 7 7 8 6 3 6 6 7 7 7 8 10 10 8 9 11 12 14 16 16 15 18 19 17 16 17 16 15 14 14 13 11 9 6 4 10 18 23 25 28 31 32 32 34 35 35 36 36 36 36 36
6 7 8 8 8 10 11 9 8 8 9 9 9 9 10 9 7 8 5 6 5 5 5 7 8 7 7 9 11 13 16 16 16 17 17 16 16 16 15 14 13 13 12 12 12 13 14 13 7 10 16 20 24 28 30 32 33 34 35 35 36 35 35
5 6 7 9 10 11 12 9 6 7 9 9 9 8 8 8 7 7 4 5 4 4 4 5 7 8 9 11 13 13 12 15 16 17 16 15 15 14 14 14 13 13 13 13 13 12 14 18 17 9 3 10 15 19 24 27 29 31 33 34 34 35 35
4 4 7 11 12 12 11 6 2 4 7 8 8 7 7 7 7 7 5 2 1 5 5 5 7 10 11 12 11 10 9 12 15 16 16 15 14 14 14 13 13 13 13 13 12 12 12 15 18 18 11 2 8 12 17 23 26 28 30 31 32 33 33
3 3 6 9 9 9 8 4 1 4 6 8 7 4 5 6 4 3 2 2 2 4 6 6 8 9 10 10 9 8 8 10 13 14 14 14 14 14 13 13 13 12 11 12 12 13 14 15 17 19 18 8 6 11 14 20 24 26 28 30 31 31 31
2 4 5 6 5 5 6 3 4 7 6 6 5 5 7 9 7 3 1 1 4 6 7 6 6 7 7 7 7 8 8 9 10 12 13 13 13 12 11 11 11 11 11 13 16 17 18 18 16 14 16 17 9 13 16 19 23 27 29 29 30 32 32
1 3 5 4 4 5 5 5 8 8 5 3 5 6 8 11 10 8 6 7 8 7 7 6 3 4 6 7 9 11 12 10 9 10 12 13 14 12 11 11 10 10 13 17 20 23 22 21 17 11 10 16 16 13 15 17 22 28 31 31 31 33 36
1 1 2 2 5 7 9 9 7 7 6 5 4 4 6 9 10 9 9 8 8 8 8 8 6 1 4 6 10 13 13 12 11 10 10 11 12 12 13 13 12 12 15 16 18 22 22 20 19 16 13 15 17 14 8 10 15 20 26 31 33 35 37
2 2 3 3 6 10 10 5 2 3 2 4 5 3 2 5 7 8 8 8 9 10 9 10 11 6 3 3 7 11 12 11 9 8 9 10 10 11 12 14 16 16 17 16 18 21 22 21 19 20 20 19 18 18 15 13 13 14 17 24 31 36 38
3 3 3 2 5 6 3 1 4 5 4 5 6 3 1 4 8 8 7 7 9 10 10 12 12 8 2 1 5 9 11 10 9 7 8 10 11 12 14 15 18 20 20 19 20 22 25 24 21 21 24 25 20 18 19 18 17 17 17 21 28 33 36
2 3 3 3 5 4 1 4 7 9 9 8 7 2 1 5 9 9 7 6 6 7 9 10 9 7 4 3 5 7 9 9 10 9 8 10 13 14 14 16 18 21 22 21 20 21 23 24 22 20 22 24 21 18 20 19 18 22 24 27 31 33 35
3 4 4 4 4 2 3 6 8 9 8 7 4 2 1 5 9 10 7 6 5 5 6 7 6 5 3 4 6 8 8 6 8 10 9 11 13 14 14 16 17 19 20 20 20 19 20 24 25 21 19 21 20 18 18 18 17 21 28 34 37 37 37
4 5 5 4 3 2 4 7 9 9 7 2 1 3 2 5 9 10 7 5 5 5 5 5 4 2 3 5 7 9 9 7 7 10 12 14 16 16 16 16 17 17 17 19 20 19 19 23 26 23 19 20 21 21 20 17 15 16 21 29 35 37 37
2 3 4 5 4 1 4 8 8 5 3 2 2 2 3 5 7 8 6 5 4 4 4 4 4 4 5 7 8 9 10 9 7 8 12 14 16 18 18 17 18 18 17 19 21 20 20 23 24 22 20 21 23 24 22 19 17 17 17 20 25 31 34
1 2 3 4 3 1 5 7 5 3 0 2 2 4 5 6 5 5 5 5 4 4 5 5 5 6 6 6 7 8 9 9 8 9 10 12 14 18 20 21 21 19 18 18 20 21 22 22 21 20 19 20 22 23 24 24 23 21 19 18 20 24 29
0 2 3 2 1 2 3 3 1 2 4 4 4 5 5 5 5 4 4 5 5 5 6 6 6 6 7 6 6 7 8 9 9 9 10 12 14 17 20 22 22 20 18 18 20 21 21 20 20 20 19 19 21 24 25 26 26 25 23 22 20 21 24
2 4 5 3 1 2 3 1 3 6 7 5 4 4 5 5 5 4 4 5 6 6 6 7 7 6 7 8 6 5 6 8 8 9 11 13 14 16 18 22 23 23 20 19 19 20 19 18 19 20 20 20 21 25 26 26 26 26 26 24 22 22 23
3 5 6 4 3 4 5 4 4 4 5 5 5 5 6 6 6 6 6 6 6 6 5 6 6 7 8 9 7 6 6 7 8 8 11 14 15 16 18 20 22 23 22 20 19 19 18 17 18 20 21 21 22 25 27 26 25 26 26 24 25 26 25
2 3 3 2 2 5 6 5 4 5 6 6 6 6 7 8 9 9 8 7 6 6 5 5 6 7 7 8 9 7 6 7 7 6 8 12 15 17 18 20 21 21 20 20 20 19 18 18 20 21 22 22 23 26 26 24 24 26 26 25 25 26 27
2 4 5 3 5 7 5 2 2 6 8 9 9 8 8 9 10 10 9 8 7 6 6 7 7 8 7 7 9 9 7 6 6 5 7 11 15 18 21 22 21 19 19 20 20 19 19 20 22 23 22 23 25 27 27 25 23 24 25 24 24 26 27
3 6 6 4 6 6 3 2 4 6 7 9 11 11 11 11 12 11 9 9 9 8 7 7 7 8 8 6 7 9 8 6 6 7 8 10 14 18 21 22 21 19 18 20 20 19 20 22 23 23 23 25 27 28 26 24 23 24 25 26 26 26 25
4 5 3 0 2 4 5 5 7 7 7 9 11 12 12 11 11 11 10 11 11 10 10 9 8 9 9 7 7 8 7 7 9 10 10 10 12 17 21 22 21 19 19 21 20 19 21 23 22 22 23 26 26 25 24 25 26 26 27 27 26 25 23
5 6 5 4 3 4 6 7 7 7 8 9 10 11 11 11 11 11 10 11 11 10 11 12 11 9 9 10 10 8 9 12 13 12 11 10 12 15 19 21 21 20 20 21 20 19 21 23 22 22 24 24 24 23 25 27 27 27 27 26 25 24 22
5 5 5 5 4 5 7 7 8 8 8 8 9 11 11 11 12 12 10 10 11 10 10 12 15 14 12 13 13 10 11 16 16 13 11 11 12 13 15 18 19 20 20 21 20 20 22 23 22 23 23 23 23 26 29 29 26 26 25 24 24 24 23
4 4 5 5 5 6 7 7 7 8 9 9 9 10 12 13 14 14 12 10 11 12 10 10 14 18 17 15 16 14 13 17 18 14 10 11 13 12 13 16 18 19 20 21 21 21 21 22 22 23 23 24 26 30 31 28 25 25 25 24 23 24 23
Wind_Direction
54 13 336 344 13 295 273 6 168 217 187 137 152 258 237 135 164 281 267 250 289 302 294 283 236 218 213 206 208 202 200 195 179 185 192 190 193 193 193 195 194 193 189 188 187 185 184 184 183 185 186 187 187 188 188 189 190 191 193 195 197 198 198
14 354 328 351 17 17 43 301 260 264 18 110 122 271 325 56 164 271 265 217 290 316 289 292 272 245 223 203 208 209 199 189 183 189 191 190 193 193 193 194 193 192 190 190 191 188 187 186 185 187 187 188 189 189 190 190 190 192 194 196 198 198 199
346 344 358 6 356 11 44 335 303 340 50 218 28 138 206 134 162 267 291 264 261 232 242 294 286 262 255 209 203 207 195 185 189 193 191 191 190 189 191 191 191 193 192 193 194 193 190 188 188 188 188 188 189 190 191 191 192 193 194 196 198 200 201
356 344 28 24 341 350 9 2 352 356 216 196 199 193 181 160 175 224 306 317 285 238 253 312 323 294 291 244 201 204 194 188 193 192 190 189 187 188 190 188 190 192 192 194 195 195 193 190 189 188 188 188 189 191 192 193 194 194 194 196 198 200 202
20 35 35 30 357 347 350 354 0 350 325 280 156 245 186 143 158 180 221 279 280 295 323 332 332 324 314 250 201 201 196 191 195 192 186 184 185 189 190 185 187 191 192 194 195 195 194 192 190 188 188 189 190 190 192 193 194 194 194 196 198 200 202
21 81 6 338 322 311 311 4 10 359 339 351 12 299 273 143 158 180 177 212 276 312 347 339 329 340 342 297 205 198 195 192 194 191 184 184 186 188 187 185 186 187 190 193 193 194 194 192 191 190 189 190 190 190 192 193 194 195 196 197 198 199 202
276 255 254 298 324 341 96 60 17 1 353 6 12 284 289 313 295 227 175 191 256 304 350 352 347 3 7 360 335 198 201 197 194 191 185 184 187 187 185 183 184 186 187 189 190 191 192 192 192 191 191 191 191 191 192 193 194 196 197 198 198 199 201
296 272 194 76 38 46 61 30 2 357 352 343 311 260 266 323 348 348 222 201 270 326 343 348 356 14 19 17 21 26 14 341 222 198 191 188 188 187 185 183 183 183 183 185 188 189 190 191 193 193 192 192 192 192 192 193 195 197 198 198 199 199 200
329 10 34 7 18 28 27 344 340 342 342 339 326 296 326 53 35 354 185 204 279 314 330 336 360 21 25 23 22 23 18 6 357 216 195 196 192 183 180 183 181 179 182 185 188 189 189 189 192 193 194 193 192 192 193 194 196 197 197 198 198 199 200
286 321 37 351 333 341 336 322 329 338 348 346 335 330 8 22 335 330 111 212 295 311 332 339 359 22 28 27 21 17 18 14 10 18 189 196 200 193 189 189 186 183 185 187 189 190 190 189 190 191 193 194 194 194 194 195 195 196 197 197 197 199 201
242 250 234 281 293 300 303 313 321 331 343 336 328 343 7 339 324 316 173 137 328 329 333 339 360 18 27 32 23 17 22 21 20 33 84 105 70 44 201 199 195 192 194 195 194 192 192 192 191 191 193 194 194 194 194 195 195 195 196 197 197 198 200
242 255 264 282 294 294 296 305 310 314 324 323 324 322 302 319 337 299 268 2 343 326 327 344 5 11 25 36 24 16 22 24 27 41 54 56 50 44 39 32 30 32 26 321 228 209 203 200 196 194 194 195 195 195 194 194 195 195 195 196 197 197 199
289 293 307 309 299 289 287 289 291 299 310 308 307 305 300 310 299 263 295 342 336 322 343 1 10 15 33 45 35 18 15 18 27 39 48 51 49 47 42 34 33 37 37 33 25 4 287 232 214 204 200 198 196 196 196 194 193 195 195 194 196 198 199
318 322 322 315 313 307 298 288 279 282 287 285 288 292 292 291 270 257 301 352 338 335 10 10 3 14 36 51 54 32 9 7 22 33 39 44 44 43 39 31 28 30 34 40 41 35 23 3 313 229 208 206 202 197 196 195 193 193 194 194 196 198 200
318 323 325 325 331 323 309 305 300 283 274 274 277 277 280 287 280 280 333 18 339 325 16 26 11 19 31 39 49 47 19 5 16 27 28 31 35 35 32 27 22 21 23 30 36 39 35 22 7 352 223 205 212 207 198 196 196 194 193 195 196 198 202
301 322 341 333 331 323 310 302 298 288 278 271 267 259 265 277 280 294 327 24 273 304 345 31 34 30 34 37 37 45 39 21 20 25 22 20 24 25 23 20 17 16 16 20 23 23 28 33 24 9 3 117 189 213 210 201 198 196 195 195 197 199 202
296 335 347 336 336 329 302 257 208 345 319 299 290 286 302 311 311 308 287 216 244 317 342 22 45 38 35 40 34 32 42 36 28 26 23 18 15 15 15 11 8 11 14 12 9 3 3 17 29 14 350 332 184 193 214 210 202 199 198 198 199 200 202
296 326 353 347 329 294 265 260 350 347 328 327 354 19 8 3 8 16 95 65 1 357 356 9 47 60 51 50 43 32 38 45 34 24 22 19 13 11 9 2 1 5 3 358 356 353 351 355 9 17 348 322 268 199 203 211 208 204 202 201 202 202 203
253 340 22 356 272 249 269 318 337 327 317 5 54 53 25 12 6 3 14 24 12 0 351 350 25 109 99 70 52 35 33 39 34 23 20 15 8 3 359 356 0 2 358 354 348 342 342 347 352 3 349 315 284 231 202 204 208 208 206 204 203 205 206
201 41 71 230 259 285 303 318 336 345 352 7 31 46 23 6 2 358 357 3 3 355 347 348 348 207 159 89 51 35 32 35 30 20 15 14 8 358 351 349 352 355 356 350 338 330 333 345 353 353 341 317 301 289 258 219 211 209 209 207 205 206 209
158 158 201 251 303 306 304 309 358 23 21 348 336 325 338 352 353 349 350 360 1 354 351 351 345 320 208 119 37 24 26 30 31 20 4 3 6 357 346 342 343 346 348 342 336 336 335 343 358 355 338 326 320 312 297 268 236 220 218 216 210 208 211
143 169 228 284 294 287 292 338 337 336 332 320 314 281 230 352 344 337 349 7 5 355 352 350 347 348 16 63 4 5 8 7 13 19 2 355 359 356 346 342 340 341 344 343 343 345 340 341 356 353 331 325 324 309 295 282 255 234 235 236 224 215 214
143 164 208 238 241 244 317 342 327 328 326 323 322 290 202 345 335 328 339 359 11 7 355 349 357 17 27 341 328 348 357 355 355 359 357 351 352 351 346 345 341 338 339 341 343 346 342 339 345 344 325 317 316 301 292 288 262 237 235 239 235 228 223
200 196 212 234 241 252 349 344 325 316 318 334 340 264 273 335 326 320 326 340 356 6 357 355 10 27 9 314 313 328 338 347 349 350 353 347 343 345 346 343 340 337 337 338 339 340 340 334 334 334 323 313 310 305 302 298 275 246 235 234 235 234 231
221 219 229 255 262 282 341 334 320 310 309 323 212 230 282 322 309 305 314 328 342 352 358 2 360 341 303 297 306 319 327 334 343 348 348 342 338 340 341 338 338 339 338 337 333 329 331 334 334 333 328 319 312 309 308 303 290 273 255 244 242 240 236
229 219 235 262 257 276 344 326 318 320 304 240 220 276 297 295 296 303 309 313 328 341 345 338 316 300 301 306 312 320 325 326 330 340 344 342 338 338 337 337 342 344 340 335 329 324 330 337 335 332 328 320 313 310 306 300 299 301 292 274 262 253 245
249 227 232 250 246 330 356 342 337 7 38 237 295 320 299 290 306 317 315 313 316 317 315 309 300 301 308 309 311 316 318 317 321 330 337 339 337 336 336 337 340 343 344 336 326 322 328 334 335 333 327 317 312 309 304 303 307 308 303 296 284 271 259
153 221 226 218 207 268 332 359 315 286 282 272 290 307 302 307 321 319 318 319 312 302 299 294 291 296 299 295 295 305 310 311 316 324 330 335 337 336 333 332 334 339 342 336 325 322 327 333 335 332 326 317 311 304 300 304 309 309 304 301 294 284 274
227 240 255 282 297 280 306 320 266 278 289 293 303 310 307 309 311 309 314 314 311 310 300 290 287 289 291 289 285 286 294 300 305 314 320 326 332 333 330 330 332 336 338 334 326 322 326 334 336 332 327 320 309 302 302 305 306 304 303 302 298 293 286
284 267 263 280 306 311 317 312 299 302 311 318 330 329 314 308 308 309 305 298 300 307 301 292 292 290 290 289 282 274 280 289 294 305 315 321 327 330 329 329 330 333 335 333 327 323 327 336 337 333 330 324 311 304 306 308 305 302 301 299 298 298 295
333 285 253 233 293 301 300 299 314 333 330 319 321 320 309 306 305 302 300 300 302 305 303 298 293 291 292 292 287 280 278 280 285 298 309 316 322 325 325 326 326 327 331 331 326 325 332 337 335 331 329 326 318 313 311 310 307 304 301 297 296 296 297
208 256 261 277 304 296 282 262 333 335 326 316 312 309 302 300 298 294 294 301 306 305 302 299 294 293 293 292 290 289 281 272 277 292 299 306 316 321 323 325 324 324 328 330 326 328 336 337 332 327 326 326 325 322 319 317 316 312 307 302 299 297 297
266 276 282 316 328 308 283 303 325 321 313 307 305 304 300 298 297 294 295 299 298 298 298 298 297 296 294 289 291 292 284 270 271 283 289 299 311 317 320 323 321 319 323 328 328 331 337 336 331 327 326 327 328 327 325 323 323 321 316 309 303 300 300
267 260 247 264 313 285 275 295 306 305 304 302 298 296 297 297 296 296 298 298 296 296 297 296 294 294 292 293 297 294 284 271 269 276 285 297 308 315 319 322 319 316 321 327 328 330 334 334 332 330 328 329 329 328 325 324 324 323 320 312 304 301 303
230 226 208 180 203 254 267 279 291 298 303 301 297 297 297 296 294 293 295 297 298 298 297 294 290 288 289 295 299 297 291 283 271 264 272 289 299 309 316 319 316 314 320 327 328 328 331 332 331 329 328 330 332 331 328 325 323 321 319 313 305 302 304
231 233 211 185 199 246 264 278 289 293 295 296 298 299 296 293 293 292 289 288 290 291 291 290 288 287 288 293 293 288 290 289 276 255 257 280 291 300 310 314 313 312 317 324 325 326 328 328 329 331 330 330 332 334 333 329 324 319 316 310 303 301 305
209 217 194 186 213 244 261 277 279 276 285 295 298 299 296 294 294 292 289 285 283 284 286 287 287 287 285 285 286 283 283 285 276 257 255 280 290 297 308 313 312 312 316 319 321 324 325 325 329 334 335 334 335 337 337 335 328 318 312 305 300 301 305
Height
752 756 752 746 755 760 752 751 758 755 746 752 771 779 770 774 794 787 769 764 751 740 731 715 713 720 718 719 718 718 721 722 728 734 734 736 738 738 740 741 742 743 745 748 750 752 756 759 763 766 769 773 776 780 784 787 791 794 797 800 803 806 809
755 751 748 746 749 753 759 765 757 745 745 751 765 781 782 787 801 787 768 769 763 759 751 723 713 720 718 719 718 715 717 720 725 727 727 729 730 731 735 736 739 741 742 745 747 749 752 754 758 761 765 769 773 777 780 784 787 790 793 797 800 804 806
762 749 750 758 754 750 761 765 751 751 768 771 771 784 790 796 805 791 772 769 765 762 753 732 725 724 717 717 717 714 717 720 721 722 722 723 725 728 732 734 738 739 740 743 745 747 749 752 755 759 762 767 770 774 777 780 783 786 790 794 798 801 803
768 759 766 784 780 762 758 760 757 758 767 770 772 776 779 789 801 795 784 777 766 756 746 737 735 729 721 720 717 713 713 714 714 716 717 720 722 725 727 729 733 734 736 739 741 744 747 749 753 756 760 764 767 771 774 777 781 784 788 791 793 797 800
775 779 783 792 792 783 777 779 780 779 771 764 767 767 766 776 789 793 793 787 769 753 745 740 737 729 720 714 710 707 707 706 707 708 711 715 717 719 720 723 727 729 732 735 737 741 744 747 751 754 757 761 764 768 771 774 778 781 784 786 789 793 797
790 793 786 780 783 784 786 790 792 794 788 781 785 783 767 764 773 780 784 785 773 757 746 740 735 727 715 705 701 700 699 700 702 703 705 708 710 713 715 717 720 724 728 731 735 739 742 745 749 751 754 758 761 764 768 771 775 777 780 783 786 790 794
794 791 781 777 780 776 779 789 791 792 792 793 802 801 782 771 771 767 767 776 773 756 743 739 734 727 718 708 701 699 698 697 697 698 699 701 704 706 708 711 715 718 722 727 731 735 739 742 745 748 751 754 757 761 764 768 771 774 777 780 783 787 790
786 782 776 775 777 780 789 796 793 792 795 795 798 796 788 785 785 779 776 782 775 753 740 739 734 726 721 715 708 706 706 703 700 699 699 699 701 703 705 708 711 715 720 724 728 732 735 738 741 744 747 750 754 758 761 765 767 770 774 777 781 784 787
799 791 792 792 789 794 806 807 799 795 795 793 791 787 785 789 793 792 794 795 782 759 745 741 736 730 727 723 717 714 712 709 705 703 703 703 704 705 708 710 712 716 720 722 725 727 730 734 737 740 744 748 751 754 757 761 764 768 771 775 778 781 784
825 819 824 825 817 811 811 808 803 799 797 797 797 796 796 798 796 794 799 801 786 764 751 745 740 737 733 729 725 721 717 713 707 703 705 707 709 710 711 711 712 714 716 718 720 723 726 730 733 737 741 744 747 751 754 757 761 765 768 771 775 778 781
831 830 832 828 822 819 815 811 807 803 800 799 800 803 804 802 799 794 794 795 785 769 759 752 748 746 741 737 735 730 725 720 713 708 708 711 716 719 718 717 717 717 719 720 720 722 724 726 729 733 737 740 744 747 750 754 758 761 765 768 771 775 778
823 823 823 818 817 817 815 812 809 805 802 800 802 806 802 799 802 799 789 787 785 775 764 758 756 754 749 747 746 742 736 731 726 720 718 722 726 727 728 729 728 727 728 727 727 727 727 727 729 731 733 737 740 743 747 751 755 758 761 765 768 772 775
821 818 817 815 815 814 811 810 809 804 802 802 803 803 797 795 802 798 786 784 784 776 768 764 760 757 756 756 755 752 746 741 736 730 729 732 734 735 737 738 736 734 734 733 733 733 733 733 733 733 735 736 739 742 745 748 752 755 759 762 766 769 772
824 820 817 814 814 814 810 809 806 802 800 799 799 797 792 791 793 788 783 785 783 775 770 767 762 759 757 755 754 757 757 752 745 740 739 740 740 741 743 743 742 740 738 736 735 735 736 737 737 737 738 739 740 741 743 746 749 753 757 760 763 766 769
828 822 817 815 817 817 814 810 805 800 798 795 795 794 789 788 788 784 783 787 784 773 768 767 765 762 758 755 756 761 764 760 754 749 747 746 745 746 746 746 745 744 741 738 736 736 738 738 739 740 740 740 742 743 744 746 749 751 754 757 760 763 765
832 823 821 820 817 814 813 810 806 801 798 794 790 786 784 785 787 784 785 789 785 775 769 768 768 766 766 766 765 767 768 764 761 760 756 752 750 749 749 748 747 746 744 742 740 739 739 738 739 742 743 741 742 744 746 747 748 751 753 755 758 760 763
832 825 824 822 820 820 815 807 802 801 800 793 787 785 784 783 784 785 788 788 782 777 774 773 772 772 773 773 771 772 772 767 766 765 762 759 756 753 752 752 750 748 747 745 743 741 740 740 740 743 747 745 741 741 744 746 748 750 751 753 756 758 760
834 828 823 824 830 830 815 798 794 799 800 795 795 797 795 789 784 784 785 785 782 780 778 777 777 776 776 775 773 773 772 769 769 768 763 761 760 758 758 757 753 749 746 745 744 741 741 744 744 743 747 748 743 738 739 743 745 747 748 751 753 754 756
833 828 828 835 837 823 803 793 792 793 793 793 797 801 799 793 789 786 785 786 786 784 780 777 776 775 775 773 771 770 770 769 770 770 766 763 761 760 760 758 755 751 748 746 744 740 739 744 748 746 744 746 745 740 738 739 741 743 745 747 749 751 751
833 833 838 840 827 807 797 797 796 794 795 797 799 801 802 799 794 790 788 788 786 784 781 777 774 773 772 771 770 770 770 771 772 772 771 767 765 763 762 759 756 753 751 749 747 744 741 744 747 746 742 742 744 742 740 739 739 740 742 743 744 746 747
832 836 837 831 822 812 804 801 801 802 806 807 805 805 805 802 798 794 792 790 788 785 781 777 773 769 767 770 773 771 770 773 774 774 772 769 767 766 765 763 759 755 752 750 747 744 742 743 746 744 741 741 742 741 740 739 738 739 740 741 741 742 743
830 834 836 834 832 825 811 805 805 804 805 805 803 803 805 804 801 798 795 793 792 788 783 779 774 768 768 775 780 776 773 773 774 774 773 770 768 766 766 764 760 756 753 749 746 743 740 741 744 745 742 740 740 740 738 736 736 736 737 739 740 740 740
831 834 838 838 832 821 811 810 808 804 803 801 797 801 808 807 802 799 796 794 793 791 787 783 778 777 781 787 786 781 778 776 774 774 774 772 770 768 766 765 761 757 753 749 747 745 744 744 747 750 746 739 738 739 737 734 735 734 734 737 738 738 739
830 831 835 831 822 814 812 813 809 805 802 797 798 808 813 808 803 800 797 794 792 791 789 787 785 787 791 791 785 781 780 779 777 775 773 773 772 769 767 766 763 759 755 750 747 746 746 746 748 750 748 739 735 736 736 734 734 734 734 736 736 736 736
830 830 831 826 817 813 815 813 808 804 801 799 806 815 813 808 805 800 796 794 792 790 789 789 789 788 787 785 781 779 778 778 777 775 774 773 771 769 767 765 763 760 756 751 747 746 746 747 746 745 744 738 734 733 734 734 734 734 734 735 733 732 732
832 830 830 826 819 815 815 812 806 803 804 806 810 811 809 807 805 800 797 795 792 790 790 789 789 787 783 780 778 777 776 775 774 773 773 772 770 768 766 764 762 759 755 750 747 745 744 745 744 743 742 738 735 733 731 732 733 733 733 732 730 729 728
834 834 832 828 822 816 814 812 809 807 809 810 809 808 806 805 802 801 799 797 793 792 790 788 787 786 783 781 779 776 775 774 772 771 770 770 768 766 764 762 759 757 754 751 748 745 743 743 743 742 741 739 736 733 730 729 730 731 730 729 728 726 725
834 834 828 822 820 817 815 815 814 812 811 809 808 808 806 803 802 802 801 799 797 795 792 789 786 785 784 782 780 778 776 774 772 770 769 768 767 764 762 760 758 755 754 752 751 747 743 741 741 741 740 738 736 733 729 728 728 727 726 726 725 723 722
832 829 822 816 817 817 815 815 814 812 809 807 807 808 806 804 802 801 800 800 798 795 793 791 788 785 783 782 781 780 778 775 772 771 768 767 766 764 762 760 757 754 752 751 751 749 744 741 740 739 738 736 734 730 728 727 727 725 723 722 720 719 718
829 823 818 817 818 817 815 815 813 811 810 808 807 807 806 804 802 800 799 798 796 795 794 792 789 787 784 781 780 779 778 775 773 771 769 766 765 764 763 761 757 754 752 750 750 748 743 739 738 737 735 734 731 728 726 726 724 722 720 718 716 714 714
831 824 818 817 819 818 816 814 813 811 810 808 807 807 805 803 800 798 796 794 793 792 792 790 789 787 784 781 779 777 776 774 772 770 769 766 764 762 761 760 758 755 753 751 748 745 741 737 736 734 733 731 729 726 724 723 721 718 716 714 712 710 708
831 825 819 817 818 816 813 813 813 812 810 808 806 805 803 800 798 795 793 792 790 789 788 788 786 784 783 781 779 775 773 771 770 769 768 765 763 761 759 758 756 754 752 749 747 743 738 735 734 732 730 728 726 723 721 719 718 715 712 710 708 706 704
829 823 818 818 817 814 811 812 812 811 811 809 805 803 800 798 795 792 790 789 788 787 786 785 783 781 780 779 777 775 772 769 767 766 765 763 762 759 757 756 754 753 751 748 744 740 736 734 733 731 728 725 723 720 717 716 714 712 709 706 704 701 700
828 821 817 818 818 816 813 812 811 810 809 807 804 801 798 795 792 790 787 786 784 783 783 781 780 778 776 774 774 774 771 768 766 763 761 761 760 757 755 754 752 751 749 746 742 739 736 734 733 730 727 723 720 718 715 713 710 708 706 704 700 697 696
818 813 813 815 817 816 813 810 809 808 806 805 802 799 796 793 790 788 786 784 782 780 779 779 777 775 772 770 770 770 768 767 765 763 761 759 758 756 755 753 751 749 747 744 741 738 736 735 733 730 726 722 719 716 714 711 708 705 703 701 698 695 692
810 809 810 813 814 813 810 808 807 806 804 803 801 797 794 791 788 786 784 782 781 779 777 775 774 772 769 768 767 766 764 763 762 761 760 758 757 756 755 752 750 747 744 742 740 738 737 735 732 728 724 721 717 714 711 708 705 703 700 699 696 693 690
807 807 807 809 810 809 807 806 805 804 802 801 799 796 793 790 786 784 782 779 778 777 774 772 771 769 767 765 763 762 760 759 758 758 757 756 755 754 752 751 748 745 743 741 739 738 736 734 730 726 722 718 715 711 708 705 703 701 698 696 693 690 687